Flag Weather past 2 weeks in Gbarnga, Liberia

Now
79 °F

Passing clouds.


Feels Like: 82 °F
Forecast: N/A
Wind: No wind

Location: Roberts Field

Current Time: Nov 25, 2014 at 9:17:49 PM

Latest Report: Nov 25, 2014 at 8:30 PM


Visibility: N/A

Pressure: 29.89 "Hg

Humidity: 89%

Dew point: 75 °F

Location of GbarngaLocation

Historic Weather in Gbarnga — Graph

°F

Gbarnga temperature yesterday

Maximum temperature yesterday: 88 °F (at 1:30 PM)
Minimum temperature yesterday: 77 °F (at 12:00 AM)
Average temperature yesterday: 81 °F

Past Weeks' High & Low Weather Summary

 TemperatureHumidityPressure
High90 °F (Nov 15, 2:00 PM)100% (Nov 20, 3:30 AM)29.95 "Hg (Nov 20, 3:30 AM)
Low72 °F (Nov 18, 6:30 AM)66% (Nov 17, 2:00 PM)29.77 "Hg (Nov 13, 3:30 PM)
Average80 °F87%29.87 "Hg
* Reported Nov 10 8:00 PM — Nov 25 8:00 PM, Gbarnga, Weather by CustomWeather, © 2014

Note: Actual official high and low records may vary slightly from our data, if they occured in-between our weather recording intervals... More about our weather records

Advertising

Gbarnga weather history for previous 24 hours

 ConditionsComfort  
Time TempWeatherWind HumidityBarometerVisibility
8:00 PM
Nov 25
79 °FPassing clouds.No wind89%29.89 "HgN/A
7:00 PM81 °FThunderstorms. Partly sunny.No wind84%29.86 "HgN/A
6:30 PM81 °FThunderstorms. Scattered clouds.No wind84%29.86 "HgN/A
6:00 PM82 °FPartly sunny.6 mph79%29.86 "HgN/A
5:30 PM84 °FScattered clouds.9 mph74%29.83 "HgN/A
5:00 PM84 °FScattered clouds.3 mph74%29.83 "HgN/A
4:30 PM84 °FPassing clouds.No wind79%29.83 "HgN/A
4:00 PM84 °FScattered clouds.No wind79%29.83 "HgN/A
3:00 PM86 °FScattered clouds.9 mph75%29.83 "HgN/A
2:30 PM88 °FScattered clouds.3 mph66%29.83 "HgN/A
2:00 PM88 °FScattered clouds.5 mph70%29.83 "HgN/A
1:30 PM86 °FScattered clouds.No wind70%29.86 "HgN/A
1:03 PM86 °FScattered clouds.3 mph70%29.86 "HgN/A
12:03 PM84 °FScattered clouds.No wind100%29.89 "HgN/A
12:00 PM84 °FScattered clouds.No wind100%29.89 "HgN/A
11:30 AM82 °FScattered clouds.No wind84%29.89 "HgN/A
11:00 AM81 °FScattered clouds.7 mph84%29.92 "HgN/A
10:30 AM79 °FScattered clouds.No wind84%29.92 "HgN/A
10:00 AM77 °FScattered clouds.6 mph89%29.95 "HgN/A
9:30 AM77 °FScattered clouds.6 mph89%29.95 "HgN/A
9:00 AM77 °FScattered clouds.9 mph94%29.95 "HgN/A
8:30 AM75 °FRain. Scattered clouds.No wind94%29.95 "HgN/A
8:00 AM73 °FLight rain. Scattered clouds.7 mph94%29.95 "Hg6 mi
7:30 AM73 °FLight rain. Passing clouds.5 mph94%29.95 "Hg6 mi
7:00 AM73 °FLight rain. Passing clouds.No wind94%29.95 "Hg6 mi
6:30 AM75 °FLight rain. Passing clouds.No wind94%29.89 "Hg6 mi
6:00 AM75 °FLight rain. Passing clouds.No wind94%29.89 "Hg6 mi
5:30 AM75 °FLight rain. Passing clouds.No wind94%29.89 "Hg6 mi
5:00 AM75 °FLight rain. Passing clouds.No wind94%29.89 "Hg6 mi
4:30 AM75 °FThunderstorms. Passing clouds.No wind94%29.89 "Hg6 mi
3:30 AM77 °FThunderstorms. Partly cloudy.6 mph94%29.89 "Hg5 mi
3:00 AM77 °FThunderstorms. Partly cloudy.No wind94%29.92 "Hg4 mi
2:00 AM77 °FThunderstorms. Partly cloudy.No wind94%29.92 "Hg4 mi
1:30 AM77 °FThunderstorms. Partly cloudy.No wind94%29.92 "Hg4 mi
1:00 AM77 °FThunderstorms. Partly cloudy.No wind94%29.92 "Hg4 mi
12:30 AM77 °FThunderstorms. Passing clouds.No wind94%29.92 "Hg4 mi
11:30 PM
Nov 24
77 °FThunderstorms. Passing clouds.No wind94%29.95 "Hg6 mi
11:00 PM77 °FThunderstorms. Passing clouds.No wind94%29.95 "Hg5 mi
10:30 PM77 °FThunderstorms. Partly cloudy.7 mph94%29.95 "Hg4 mi
10:00 PM79 °FRain showers. Passing clouds.No wind94%29.95 "Hg6 mi
9:30 PM79 °FPassing clouds.No wind94%29.92 "HgN/A
9:00 PM79 °FPassing clouds.No wind94%29.92 "HgN/A
Weather by CustomWeather, © 2014

See weather overviewHow to use our weather pages